Terminal Aerodrome Forecast
Issued by NWS Wilmington, OH

Current Version | Previous Version | Text Only | Print | Product List | Glossary Off
Versions: 1 2 3 4 5 6 7 8 9 10 11 12 13 14 15 16 17 18 19 20 21 22 23 24

000
FTUS41 KILN 250337 AAB
TAFCMH
TAF AMD
KCMH 250337Z 2504/2524 18006KT P6SM VCTS SCT040CB BKN100
      TEMPO 2505/2506 3SM TSRA BR OVC020CB
     FM250700 18006KT P6SM SCT050 BKN250
     FM251500 22008KT P6SM FEW040=

USA.gov is the U.S. government's official web portal to all federal, state and local government web resources and services.